Location: Unspecified
(0.0000°N, 0.0000°E)
Time: 23:50:24
(UTC+00:00)

Lacrosse 5 - Visible Passes

Search period start: 28 April 2026 00:00
Search period end: 08 May 2026 00:00
Orbit: 714 x 724 km, 57.0° (Epoch: 9 March)

Date Brightness Start Highest point End Pass type
(mag) Time Alt. Az. Time Alt. Az. Time Alt. Az.
28 Apr 3.4 04:06:18 22° SSE 04:08:30 31° ESE 04:12:57 10° ENE visible
29 Apr 4.6 03:16:06 13° ESE 03:16:06 13° ESE 03:17:42 10° E visible
29 Apr 2.3 04:55:22 23° WSW 04:58:07 43° WNW 05:02:53 10° N visible
30 Apr 1.8 04:05:06 77° ESE 04:05:06 77° ESE 04:10:05 10° NE visible
1 May 4.3 03:14:45 19° ENE 03:14:45 19° ENE 03:16:23 10° ENE visible
1 May 3.4 04:53:59 18° WNW 04:54:42 18° WNW 04:58:07 10° NNW visible
2 May 3.1 04:03:31 30° N 04:03:31 30° N 04:06:22 10° N visible
3 May 4.6 03:12:56 13° NE 03:12:56 13° NE 03:13:32 10° NE visible
4 May 4.3 04:01:30 10° NNW 04:01:30 10° NNW 04:01:38 10° NNW visible
